Location: Prairie Siding
(42.3475°N, 82.3249°W)
Time: 20:24:06
(UTC-04:00)

OTV 5 (USA 277) - Visible Passes

Search period start: 25 May 2018 00:00
Search period end: 04 June 2018 00:00
Orbit: 308 x 326 km, 54.5° (Epoch: 06 May)

Date Brightness Start Highest point End Pass type
(mag) Time Alt. Az. Time Alt. Az. Time Alt. Az.
29 May ? 04:54:46 10° S 04:56:57 23° SE 04:59:13 10° ENE visible
30 May ? 05:08:42 11° SW 05:11:14 67° SE 05:14:00 10° NE visible
31 May ? 03:51:42 14° SE 03:51:42 14° SE 03:53:10 10° E visible
01 Jun ? 04:05:31 35° SSE 04:05:50 37° SE 04:08:26 10° ENE visible
02 Jun ? 04:19:15 36° WSW 04:20:11 71° NW 04:22:56 10° NE visible
03 Jun ? 03:02:05 14° E 03:02:05 14° E 03:02:41 10° ENE visible
03 Jun ? 04:32:56 15° W 04:34:41 28° NNW 04:37:09 10° NNE visible
